Change the Weather History Date:

Friday, November 2, 2012

  Actual Average Record
Temperature  
Mean Temperature 72 °F -  
Max Temperature 81 °F 82 °F - ()
Min Temperature 63 °F 68 °F - ()
Cooling Degree Days 7    
Growing Degree Days 22 (Base 50)    
Moisture  
Dew Point 64 °F    
Average Humidity 68    
Maximum Humidity 83    
Minimum Humidity 53    
Precipitation  
Precipitation 0.00 in 0.07 in - ()
Sea Level Pressure  
Sea Level Pressure 30.05 in    
Wind  
Wind Speed 3 mph ()    
Max Wind Speed 10 mph    
Max Gust Speed -    
Visibility 6.9 miles    
Events      
T = Trace of Precipitation, MM = Missing Value Source: Averaged Metar Reports

Daily Weather History Graph

Daily Weather History Graph

Search for Another Location

Airport or City:

Trip Planner

Search our weather history database for the weather conditions in past years. The results will help you decide how hot, cold, wet, or windy it might be!

Date:

Astronomy

Nov. 02, 2012 Rise Set
Actual Time 7:18 AM EDT 6:28 PM EDT
Civil Twilight 6:54 AM EDT 6:51 PM EDT
Nautical Twilight 6:27 AM EDT 7:19 PM EDT
Astronomical Twilight 6:00 AM EDT 7:45 PM EDT
Moon 9:25 PM EDT (11/2) 10:24 AM EDT (11/2)
Length of Visible Light 11h 57m
Length of Day
11h 10m
Waning Gibbous, 87% of the Moon is Illuminated
Nov 2
Waning Gibbous
Nov 6
Last Quarter
Nov 13
New
Nov 20
First Quarter
Nov 28
Full

Hourly Weather History & Observations

Time (EDT) Temp. Heat Index Dew Point Humidity Pressure Visibility Wind Dir Wind Speed Gust Speed Precip Events Conditions
12:00 AM 66.2 °F - 55.4 °F 68% 30.06 in 6.2 mi Calm Calm - N/A   Partly Cloudy
1:00 AM 66.2 °F - 55.4 °F 68% 30.05 in - Calm Calm - N/A   Clear
2:00 AM 66.2 °F - 55.4 °F 68% 30.05 in - Calm Calm - N/A   Clear
3:00 AM 66.2 °F - 55.4 °F 68% 30.03 in - Calm Calm - N/A   Clear
4:00 AM 66.2 °F - 55.4 °F 68% 30.03 in 6.2 mi Calm Calm - N/A   Partly Cloudy
5:00 AM 66 °F - 60 °F 74% 30.04 in 9 mi Calm Calm - -   Clear
5:00 AM 66.2 °F - 59.0 °F 78% 30.03 in - Calm Calm - N/A   Clear
8:00 AM 71 °F - 64 °F 73% 30.06 in 9 mi SW 3.5 mph - -   Scattered Clouds
8:00 AM 71.6 °F - 64.4 °F 78% 30.06 in 6.2 mi SW 3.5 mph - N/A   Partly Cloudy
9:00 AM 75.2 °F - 62.6 °F 65% 30.07 in 6.2 mi SW 9.2 mph - N/A   Partly Cloudy
10:00 AM 77.0 °F - 64.4 °F 65% 30.08 in 6.2 mi WSW 6.9 mph - N/A   Partly Cloudy
11:00 AM 80 °F - 67 °F 56% 30.09 in 9 mi SW 9.2 mph - -   Scattered Clouds
11:00 AM 80.6 °F 82.7 °F 66.2 °F 61% 30.08 in 6.2 mi SW 9.2 mph - N/A   Partly Cloudy
12:00 PM 78.8 °F - 64.4 °F 61% 30.09 in 6.2 mi SW 9.2 mph - N/A   Partly Cloudy
1:00 PM 78.8 °F - 64.4 °F 61% 30.05 in 6.2 mi West 9.2 mph - N/A   Partly Cloudy
2:00 PM 82 °F - 68 °F 53% 30.03 in 9 mi West 8.1 mph - -   Scattered Clouds
2:00 PM 82.4 °F 85.4 °F 68.0 °F 62% 30.02 in 6.2 mi West 8.1 mph - N/A   Partly Cloudy
3:00 PM 78.8 °F - 64.4 °F 61% 30.01 in 6.2 mi West 9.2 mph - N/A   Partly Cloudy
4:00 PM 78.8 °F - 64.4 °F 61% 30.00 in 6.2 mi West 10.4 mph - N/A   Partly Cloudy
5:00 PM 80 °F - 68 °F 59% 30.02 in 9 mi WNW 8.1 mph - -  
5:00 PM 80.6 °F 83.2 °F 68.0 °F 65% 30.01 in 6.2 mi WNW 8.1 mph - N/A   Partly Cloudy
6:00 PM 77.0 °F - 66.2 °F 69% 30.03 in 6.2 mi West 8.1 mph - N/A   Partly Cloudy
7:00 PM 75.2 °F - 66.2 °F 73% 30.02 in 6.2 mi West 6.9 mph - N/A   Partly Cloudy
8:00 PM 76 °F - 69 °F 72% 30.04 in 9 mi WNW 3.5 mph - -   Scattered Clouds
8:00 PM 75.2 °F - 68.0 °F 78% 30.04 in 6.2 mi WNW 5.8 mph - N/A   Partly Cloudy
9:00 PM 73.4 °F - 66.2 °F 78% 30.06 in 6.2 mi NNW 3.5 mph - N/A   Partly Cloudy
10:00 PM 73.4 °F - 66.2 °F 78% 30.07 in 6.2 mi North 3.5 mph - N/A   Partly Cloudy
10:56 PM 73.4 °F - 68.0 °F 83% 30.09 in 6.2 mi North 3.5 mph - N/A   Partly Cloudy
11:00 PM 74 °F - 68 °F 78% 30.09 in 8 mi North 3.5 mph - -   Scattered Clouds